Time,TemperatureF,DewpointF,PressureIn,WindDirection,WindDirectionDegrees,WindSpeedMPH,WindSpeedGustMPH,Humidity,HourlyPrecipIn,Conditions,Clouds,dailyrainin,SoftwareType,DateUTC
2013-01-03 00:03:00,13.0,2.0,30.08,NW,324,3.0,9.0,61,0.00,,,0.00,,2013-01-03 05:03:00,
2013-01-03 00:12:00,12.0,2.0,30.06,NW,326,11.0,13.0,62,0.00,,,0.00,,2013-01-03 05:12:00,
2013-01-03 00:23:00,12.0,2.0,30.06,NW,326,11.0,13.0,62,0.00,,,0.00,,2013-01-03 05:23:00,
2013-01-03 00:33:00,12.0,1.0,30.06,NW,317,10.0,17.0,61,0.00,,,0.00,,2013-01-03 05:33:00,
2013-01-03 00:42:00,12.0,1.0,30.06,NW,317,10.0,17.0,61,0.00,,,0.00,,2013-01-03 05:42:00,
2013-01-03 00:53:00,11.0,0.0,30.07,NNW,337,8.0,18.0,59,0.00,,,0.00,,2013-01-03 05:53:00,
2013-01-03 01:02:00,11.0,0.0,30.08,WNW,299,6.0,15.0,59,0.00,,,0.00,,2013-01-03 06:02:00,
2013-01-03 01:12:00,11.0,0.0,30.08,WNW,299,6.0,15.0,59,0.00,,,0.00,,2013-01-03 06:12:00,
2013-01-03 01:22:00,11.0,0.0,30.08,WNW,283,9.0,15.0,59,0.00,,,0.00,,2013-01-03 06:22:00,
2013-01-03 01:33:00,10.0,-1.0,30.09,NNW,330,10.0,15.0,59,0.00,,,0.00,,2013-01-03 06:33:00,
2013-01-03 01:42:00,10.0,-1.0,30.09,NNW,330,10.0,15.0,59,0.00,,,0.00,,2013-01-03 06:42:00,
2013-01-03 01:53:00,10.0,-1.0,30.08,NW,314,4.0,-999.0,60,-99.99,,,-99.99,,2013-01-03 06:53:00,
2013-01-03 02:02:00,9.0,-2.0,30.09,NW,310,7.0,-999.0,61,-99.99,,,-99.99,,2013-01-03 07:02:00,
2013-01-03 02:12:00,9.0,-2.0,30.09,NW,310,7.0,-999.0,61,-99.99,,,-99.99,,2013-01-03 07:12:00,
2013-01-03 02:22:00,9.0,-2.0,30.09,NNW,345,8.0,-999.0,61,-99.99,,,-99.99,,2013-01-03 07:22:00,
2013-01-03 02:33:00,9.0,-2.0,30.10,NW,323,9.0,-999.0,61,-99.99,,,-99.99,,2013-01-03 07:33:00,
2013-01-03 02:42:00,9.0,-2.0,30.10,NW,323,9.0,-999.0,61,-99.99,,,-99.99,,2013-01-03 07:42:00,
2013-01-03 02:53:00,9.0,-2.0,30.10,WNW,291,11.0,-999.0,60,-99.99,,,-99.99,,2013-01-03 07:53:00,
2013-01-03 03:02:00,8.0,-3.0,30.10,NNW,327,7.0,-999.0,61,-99.99,,,-99.99,,2013-01-03 08:02:00,
2013-01-03 03:12:00,8.0,-3.0,30.10,NNW,327,7.0,-999.0,61,-99.99,,,-99.99,,2013-01-03 08:12:00,
2013-01-03 03:22:00,8.0,-3.0,30.10,NNW,327,7.0,-999.0,60,-99.99,,,-99.99,,2013-01-03 08:22:00,
2013-01-03 03:33:00,8.0,-3.0,30.09,NNW,337,4.0,-999.0,60,-99.99,,,-99.99,,2013-01-03 08:33:00,
2013-01-03 03:43:00,8.0,-3.0,30.09,NNW,337,4.0,-999.0,60,-99.99,,,-99.99,,2013-01-03 08:43:00,
2013-01-03 03:53:00,7.0,-4.0,30.09,NW,320,7.0,-999.0,59,-99.99,,,-99.99,,2013-01-03 08:53:00,
2013-01-03 04:02:00,7.0,-5.0,30.09,NW,319,11.0,-999.0,58,-99.99,,,-99.99,,2013-01-03 09:02:00,
2013-01-03 04:12:00,7.0,-5.0,30.09,NW,319,11.0,-999.0,58,-99.99,,,-99.99,,2013-01-03 09:12:00,
2013-01-03 04:22:00,6.0,-6.0,30.08,NW,324,8.0,-999.0,58,-99.99,,,-99.99,,2013-01-03 09:22:00,
2013-01-03 04:33:00,6.0,-6.0,30.08,NNW,342,6.0,-999.0,58,-99.99,,,-99.99,,2013-01-03 09:33:00,
2013-01-03 04:43:00,6.0,-6.0,30.08,NNW,342,6.0,-999.0,58,-99.99,,,-99.99,,2013-01-03 09:43:00,
2013-01-03 04:53:00,6.0,-6.0,30.08,NW,326,9.0,-999.0,58,-99.99,,,-99.99,,2013-01-03 09:53:00,
2013-01-03 05:02:00,6.0,-6.0,30.08,NNW,341,8.0,-999.0,58,-99.99,,,-99.99,,2013-01-03 10:02:00,
2013-01-03 05:12:00,6.0,-6.0,30.08,NNW,341,8.0,-999.0,58,-99.99,,,-99.99,,2013-01-03 10:12:00,
2013-01-03 05:23:00,5.0,-7.0,30.08,WNW,285,6.0,-999.0,58,-99.99,,,-99.99,,2013-01-03 10:23:00,
2013-01-03 05:33:00,5.0,-7.0,30.07,NW,311,6.0,-999.0,58,-99.99,,,-99.99,,2013-01-03 10:33:00,
2013-01-03 05:43:00,5.0,-7.0,30.07,NW,311,6.0,-999.0,58,-99.99,,,-99.99,,2013-01-03 10:43:00,
2013-01-03 05:53:00,4.0,-7.0,30.08,NW,313,9.0,-999.0,60,-99.99,,,-99.99,,2013-01-03 10:53:00,
2013-01-03 06:02:00,4.0,-7.0,30.08,NW,321,9.0,-999.0,60,-99.99,,,-99.99,,2013-01-03 11:02:00,
2013-01-03 06:12:00,4.0,-7.0,30.08,NW,321,9.0,-999.0,60,-99.99,,,-99.99,,2013-01-03 11:12:00,
2013-01-03 06:23:00,4.0,-8.0,30.08,NW,319,5.0,-999.0,57,-99.99,,,-99.99,,2013-01-03 11:23:00,
2013-01-03 06:33:00,4.0,-8.0,30.08,NNW,327,4.0,-999.0,56,-99.99,,,-99.99,,2013-01-03 11:33:00,
2013-01-03 06:43:00,4.0,-8.0,30.08,NNW,327,4.0,-999.0,56,-99.99,,,-99.99,,2013-01-03 11:43:00,
2013-01-03 06:53:00,4.0,-8.0,30.09,NW,310,5.0,-999.0,56,-99.99,,,-99.99,,2013-01-03 11:53:00,
2013-01-03 07:03:00,3.0,-8.0,30.09,WNW,301,6.0,-999.0,58,-99.99,,,-99.99,,2013-01-03 12:03:00,
2013-01-03 07:12:00,3.0,-8.0,30.09,WNW,301,6.0,-999.0,58,-99.99,,,-99.99,,2013-01-03 12:12:00,
2013-01-03 07:22:00,3.0,-9.0,30.09,NW,306,8.0,-999.0,56,-99.99,,,-99.99,,2013-01-03 12:22:00,
2013-01-03 07:33:00,3.0,-9.0,30.10,NW,311,7.0,-999.0,56,-99.99,,,-99.99,,2013-01-03 12:33:00,
2013-01-03 07:42:00,3.0,-9.0,30.10,NW,311,7.0,-999.0,56,-99.99,,,-99.99,,2013-01-03 12:42:00,
2013-01-03 07:53:00,3.0,-9.0,30.10,WNW,287,5.0,-999.0,55,-99.99,,,-99.99,,2013-01-03 12:53:00,
2013-01-03 08:02:00,3.0,-9.0,30.10,NNW,341,8.0,-999.0,55,-99.99,,,-99.99,,2013-01-03 13:02:00,
2013-01-03 08:13:00,3.0,-9.0,30.10,NNW,341,8.0,-999.0,55,-99.99,,,-99.99,,2013-01-03 13:13:00,
2013-01-03 08:22:00,3.0,-9.0,30.09,NW,324,6.0,-999.0,56,-99.99,,,-99.99,,2013-01-03 13:22:00,
2013-01-03 08:33:00,4.0,-8.0,30.09,NW,326,5.0,-999.0,57,-99.99,,,-99.99,,2013-01-03 13:33:00,
2013-01-03 08:42:00,4.0,-8.0,30.09,NW,326,5.0,-999.0,57,-99.99,,,-99.99,,2013-01-03 13:42:00,
2013-01-03 08:53:00,5.0,-7.0,30.09,WNW,297,8.0,-999.0,56,-99.99,,,-99.99,,2013-01-03 13:53:00,
2013-01-03 09:03:00,5.0,-7.0,30.10,NW,312,6.0,-999.0,57,-99.99,,,-99.99,,2013-01-03 14:03:00,
2013-01-03 09:12:00,5.0,-7.0,30.10,NW,312,6.0,-999.0,57,-99.99,,,-99.99,,2013-01-03 14:12:00,
2013-01-03 09:23:00,7.0,-6.0,30.09,NW,307,7.0,-999.0,55,-99.99,,,-99.99,,2013-01-03 14:23:00,
2013-01-03 09:33:00,7.0,-6.0,30.08,NW,312,6.0,-999.0,53,-99.99,,,-99.99,,2013-01-03 14:33:00,
2013-01-03 09:43:00,7.0,-6.0,30.08,NW,312,6.0,-999.0,53,-99.99,,,-99.99,,2013-01-03 14:43:00,
2013-01-03 09:53:00,9.0,-5.0,30.09,WNW,284,6.0,-999.0,51,-99.99,,,-99.99,,2013-01-03 14:53:00,
2013-01-03 10:03:00,9.0,-5.0,30.09,NW,305,3.0,-999.0,51,-99.99,,,-99.99,,2013-01-03 15:03:00,
2013-01-03 10:12:00,11.0,-6.0,30.10,NW,304,6.0,15.0,45,0.00,,,0.00,,2013-01-03 15:12:00,
2013-01-03 10:23:00,11.0,-6.0,30.10,NW,304,6.0,15.0,45,0.00,,,0.00,,2013-01-03 15:23:00,
2013-01-03 10:33:00,12.0,-6.0,30.09,NW,310,6.0,10.0,43,0.00,,,0.00,,2013-01-03 15:33:00,
2013-01-03 10:43:00,12.0,-6.0,30.09,NW,310,6.0,10.0,43,0.00,,,0.00,,2013-01-03 15:43:00,
2013-01-03 10:53:00,13.0,-6.0,30.08,WNW,301,9.0,12.0,42,0.00,,,0.00,,2013-01-03 15:53:00,
2013-01-03 11:03:00,14.0,-5.0,30.08,WNW,292,5.0,12.0,41,0.00,,,0.00,,2013-01-03 16:03:00,
2013-01-03 11:12:00,14.0,-5.0,30.08,WNW,292,5.0,12.0,41,0.00,,,0.00,,2013-01-03 16:12:00,
2013-01-03 11:23:00,15.0,-6.0,30.08,NW,313,10.0,16.0,38,0.00,,,0.00,,2013-01-03 16:23:00,
2013-01-03 11:33:00,16.0,-6.0,30.08,West,278,11.0,16.0,36,0.00,,,0.00,,2013-01-03 16:33:00,
2013-01-03 11:43:00,16.0,-6.0,30.08,West,278,11.0,16.0,36,0.00,,,0.00,,2013-01-03 16:43:00,
2013-01-03 11:53:00,18.0,-5.0,30.07,NW,305,10.0,13.0,35,0.00,,,0.00,,2013-01-03 16:53:00,
2013-01-03 12:03:00,18.0,-7.0,30.06,WNW,289,6.0,12.0,32,0.00,,,0.00,,2013-01-03 17:03:00,
2013-01-03 12:13:00,18.0,-7.0,30.06,WNW,289,6.0,12.0,32,0.00,,,0.00,,2013-01-03 17:13:00,
2013-01-03 12:23:00,19.0,-7.0,30.05,NW,324,9.0,17.0,30,0.00,,,0.00,,2013-01-03 17:23:00,
2013-01-03 12:33:00,19.0,-6.0,30.04,NW,322,6.0,15.0,32,0.00,,,0.00,,2013-01-03 17:33:00,
2013-01-03 12:43:00,19.0,-6.0,30.04,NW,322,6.0,15.0,32,0.00,,,0.00,,2013-01-03 17:43:00,
2013-01-03 12:53:00,19.0,-8.0,30.03,NW,318,9.0,-999.0,29,-99.99,,,-99.99,,2013-01-03 17:53:00,
2013-01-03 13:03:00,20.0,-6.0,30.03,NW,325,8.0,-999.0,31,-99.99,,,-99.99,,2013-01-03 18:03:00,
2013-01-03 13:13:00,20.0,-6.0,30.03,NW,325,8.0,-999.0,31,-99.99,,,-99.99,,2013-01-03 18:13:00,
2013-01-03 13:22:00,20.0,-7.0,30.03,WNW,298,11.0,-999.0,29,-99.99,,,-99.99,,2013-01-03 18:22:00,
2013-01-03 13:33:00,21.0,-6.0,30.02,WNW,294,9.0,-999.0,30,-99.99,,,-99.99,,2013-01-03 18:33:00,
2013-01-03 13:43:00,21.0,-6.0,30.02,WNW,294,9.0,-999.0,30,-99.99,,,-99.99,,2013-01-03 18:43:00,
2013-01-03 13:53:00,21.0,-5.0,30.01,NW,317,10.0,-999.0,31,-99.99,,,-99.99,,2013-01-03 18:53:00,
2013-01-03 14:03:00,22.0,-4.0,30.02,WNW,300,9.0,-999.0,31,-99.99,,,-99.99,,2013-01-03 19:03:00,
2013-01-03 14:12:00,22.0,-4.0,30.02,WNW,300,9.0,-999.0,31,-99.99,,,-99.99,,2013-01-03 19:12:00,
2013-01-03 14:56:00,22.0,0.0,30.01,WNW,296,11.0,-999.0,38,-99.99,,,-99.99,,2013-01-03 19:56:00,
2013-01-03 15:03:00,23.0,3.0,30.01,WNW,299,14.0,-999.0,42,-99.99,,,-99.99,,2013-01-03 20:03:00,
2013-01-03 15:13:00,23.0,3.0,30.01,WNW,299,14.0,-999.0,42,-99.99,,,-99.99,,2013-01-03 20:13:00,
2013-01-03 15:22:00,23.0,4.0,30.01,WNW,295,5.0,-999.0,44,-99.99,,,-99.99,,2013-01-03 20:22:00,
2013-01-03 15:33:00,23.0,3.0,30.00,West,269,6.0,-999.0,42,-99.99,,,-99.99,,2013-01-03 20:33:00,
2013-01-03 15:42:00,23.0,3.0,30.00,West,269,6.0,-999.0,42,-99.99,,,-99.99,,2013-01-03 20:42:00,
2013-01-03 15:53:00,23.0,4.0,30.01,West,279,7.0,-999.0,43,-99.99,,,-99.99,,2013-01-03 20:53:00,
2013-01-03 16:02:00,22.0,4.0,30.01,West,268,4.0,-999.0,45,-99.99,,,-99.99,,2013-01-03 21:02:00,
2013-01-03 16:12:00,22.0,4.0,30.01,West,268,4.0,-999.0,45,-99.99,,,-99.99,,2013-01-03 21:12:00,
2013-01-03 16:23:00,22.0,4.0,30.00,WNW,285,3.0,11.0,45,0.00,,,0.00,,2013-01-03 21:23:00,
2013-01-03 16:36:00,22.0,4.0,30.00,WNW,285,4.0,8.0,46,0.00,,,0.00,,2013-01-03 21:36:00,
2013-01-03 16:49:00,22.0,4.0,30.00,WNW,285,4.0,8.0,46,0.00,,,0.00,,2013-01-03 21:49:00,
2013-01-03 17:03:00,21.0,5.0,30.01,West,279,4.0,7.0,49,0.00,,,0.00,,2013-01-03 22:03:00,
2013-01-03 17:12:00,21.0,5.0,30.01,West,279,4.0,7.0,49,0.00,,,0.00,,2013-01-03 22:12:00,
2013-01-03 17:22:00,20.0,4.0,30.00,West,274,6.0,10.0,49,0.00,,,0.00,,2013-01-03 22:22:00,
2013-01-03 17:33:00,20.0,4.0,30.00,West,274,5.0,10.0,50,0.00,,,0.00,,2013-01-03 22:33:00,
2013-01-03 17:42:00,20.0,4.0,30.00,West,274,5.0,10.0,50,0.00,,,0.00,,2013-01-03 22:42:00,
2013-01-03 17:52:00,20.0,5.0,30.01,WNW,286,4.0,6.0,52,0.00,,,0.00,,2013-01-03 22:52:00,
2013-01-03 18:03:00,19.0,5.0,30.01,WSW,255,7.0,10.0,53,0.00,,,0.00,,2013-01-03 23:03:00,
2013-01-03 18:12:00,19.0,5.0,30.01,WSW,255,7.0,10.0,53,0.00,,,0.00,,2013-01-03 23:12:00,
2013-01-03 18:23:00,19.0,5.0,30.01,WSW,249,7.0,10.0,54,0.00,,,0.00,,2013-01-03 23:23:00,
2013-01-03 18:33:00,19.0,6.0,30.01,West,262,5.0,11.0,55,0.00,,,0.00,,2013-01-03 23:33:00,
2013-01-03 18:43:00,19.0,6.0,30.01,West,262,5.0,11.0,55,0.00,,,0.00,,2013-01-03 23:43:00,
2013-01-03 18:53:00,19.0,6.0,30.00,West,259,5.0,9.0,55,0.00,,,0.00,,2013-01-03 23:53:00,
2013-01-03 19:03:00,19.0,6.0,30.01,WSW,254,4.0,10.0,55,0.00,,,0.00,,2013-01-04 00:03:00,
2013-01-03 19:13:00,19.0,6.0,30.01,WSW,254,4.0,10.0,55,0.00,,,0.00,,2013-01-04 00:13:00,
2013-01-03 19:22:00,19.0,6.0,30.02,West,260,4.0,-999.0,56,-99.99,,,-99.99,,2013-01-04 00:22:00,
2013-01-03 19:32:00,18.0,5.0,30.01,West,259,4.0,9.0,57,0.00,,,0.00,,2013-01-04 00:32:00,
2013-01-03 19:42:00,18.0,5.0,30.01,West,259,4.0,9.0,57,0.00,,,0.00,,2013-01-04 00:42:00,
2013-01-03 19:53:00,19.0,6.0,30.01,WSW,258,4.0,8.0,57,0.00,,,0.00,,2013-01-04 00:53:00,
2013-01-03 20:02:00,19.0,6.0,30.01,WSW,257,4.0,8.0,57,0.00,,,0.00,,2013-01-04 01:02:00,
2013-01-03 20:12:00,19.0,6.0,30.01,WSW,257,4.0,8.0,57,0.00,,,0.00,,2013-01-04 01:12:00,
2013-01-03 20:22:00,20.0,8.0,30.00,WSW,255,4.0,7.0,58,0.00,,,0.00,,2013-01-04 01:22:00,
2013-01-03 20:33:00,20.0,8.0,30.02,SW,236,5.0,9.0,59,0.00,,,0.00,,2013-01-04 01:33:00,
2013-01-03 20:42:00,20.0,8.0,30.02,SW,236,5.0,9.0,59,0.00,,,0.00,,2013-01-04 01:42:00,
2013-01-03 20:53:00,20.0,8.0,30.01,WSW,237,4.0,8.0,59,0.00,,,0.00,,2013-01-04 01:53:00,
2013-01-03 21:02:00,20.0,8.0,30.01,WSW,238,5.0,7.0,59,0.00,,,0.00,,2013-01-04 02:02:00,
2013-01-03 21:12:00,20.0,8.0,30.01,WSW,238,5.0,7.0,59,0.00,,,0.00,,2013-01-04 02:12:00,
2013-01-03 21:22:00,20.0,8.0,30.01,WSW,239,5.0,9.0,58,0.00,,,0.00,,2013-01-04 02:22:00,
2013-01-03 21:33:00,20.0,8.0,30.01,WSW,238,4.0,-999.0,60,-99.99,,,-99.99,,2013-01-04 02:33:00,
2013-01-03 21:42:00,20.0,8.0,30.01,WSW,238,4.0,-999.0,60,-99.99,,,-99.99,,2013-01-04 02:42:00,
2013-01-03 21:53:00,19.0,7.0,30.01,WSW,238,2.0,8.0,59,0.00,,,0.00,,2013-01-04 02:53:00,
2013-01-03 22:03:00,19.0,7.0,30.00,WSW,238,2.0,5.0,60,0.00,,,0.00,,2013-01-04 03:03:00,
2013-01-03 22:12:00,19.0,7.0,30.00,WSW,238,2.0,5.0,60,0.00,,,0.00,,2013-01-04 03:12:00,
2013-01-03 22:22:00,18.0,7.0,30.01,WSW,238,2.0,5.0,61,0.00,,,0.00,,2013-01-04 03:22:00,
2013-01-03 22:32:00,19.0,9.0,30.01,WSW,238,5.0,7.0,63,0.00,,,0.00,,2013-01-04 03:32:00,
2013-01-03 22:42:00,19.0,9.0,30.01,WSW,238,5.0,7.0,63,0.00,,,0.00,,2013-01-04 03:42:00,
2013-01-03 22:53:00,20.0,9.0,30.01,WSW,239,4.0,9.0,63,0.00,,,0.00,,2013-01-04 03:53:00,
2013-01-03 23:02:00,19.0,9.0,30.00,WSW,239,4.0,8.0,63,0.00,,,0.00,,2013-01-04 04:02:00,
2013-01-03 23:12:00,19.0,9.0,30.00,WSW,239,4.0,8.0,63,0.00,,,0.00,,2013-01-04 04:12:00,
2013-01-03 23:22:00,19.0,10.0,29.99,WSW,239,6.0,9.0,66,0.00,,,0.00,,2013-01-04 04:22:00,
2013-01-03 23:32:00,20.0,10.0,29.98,WSW,238,5.0,9.0,65,0.00,,,0.00,,2013-01-04 04:32:00,
2013-01-03 23:42:00,20.0,10.0,29.98,WSW,238,5.0,9.0,65,0.00,,,0.00,,2013-01-04 04:42:00,
2013-01-03 23:53:00,20.0,10.0,29.98,SW,232,7.0,9.0,64,0.00,,,0.00,,2013-01-04 04:53:00,